Regional Weather Roundup
Issued by NWS

Home | Current Version | Previous Version | Text Only | Print | Product List | Glossary On
Versions: 1 2 3 4 5 6 7 8 9 10 11 12 13 14 15 16 17 18 19 20 21 22 23 24 25 26 27 28 29 30 31 32 33 34 35 36 37 38 39 40 41 42 43 44 45 46 47 48 49 50
000
ASUS45 KSLC 231610
RWRUT

UTAH REGIONAL WEATHER ROUNDUP
NATIONAL WEATHER SERVICE SALT LAKE CITY UT
1000 AM MDT TUE SEP 23 2014

UTZ001>011-023>025-231700-

NORTHERN UTAH

CITY           SKY/WX    TMP DP  RH WIND       PRES   REMARKS
DUGWAY         MOSUNNY   69  53  55 CALM      30.19
HILL AFB       SUNNY     67  51  57 E9        30.20R
LOGAN          SUNNY     60  50  69 CALM      30.20R
OGDEN          SUNNY     69  51  52 S8        30.18R
PROVO AIRPORT  MOSUNNY   66  52  59 CALM      30.22
SALT LAKE CITY MOSUNNY   70  54  56 SE8       30.16R
VERNAL         MOSUNNY   62  52  69 E3        30.24R
WENDOVER       MOSUNNY   63  54  72 E6        30.18R
HEBER CITY     SUNNY     59  50  72 CALM      30.27S
WEST JORDAN    SUNNY     70  52  52 S12       30.20R

$$

UTZ012>022-026-027-231700-

SOUTHERN UTAH

CITY           SKY/WX    TMP DP  RH WIND       PRES   REMARKS
BRYCE CANYON   SUNNY     59  40  49 CALM      30.39R
CEDAR CITY     SUNNY     64  45  49 CALM      30.26R
MILFORD        SUNNY     64  47  53 S9        30.22S
MOAB/CYNLANDS  SUNNY     70  52  52 CALM      30.19R
PRICE          SUNNY     66  54  65 S3        30.27R
ST GEORGE      SUNNY     70  45  40 CALM      30.15S
KANAB            N/A     64  39  39 CALM      30.28R

$$

REGIONAL REPORTS     COLORADO/ARIZONA

CITY           SKY/WX    TMP DP  RH WIND       PRES   REMARKS
CRAIG, CO      PTSUNNY   61  49  64 CALM      30.28S
GRAND JUNCTION PTSUNNY   67  52  58 SE10      30.22R
RIFLE          MOSUNNY   62  51  67 E3        30.27S
MONTROSE       SUNNY     67  50  54 SE8       30.30S
CORTEZ         SUNNY     63  46  54 E3        30.30S
PAGE, AZ       SUNNY     73  42  32 SE3       30.19R
GRAND CANYON   SUNNY     68  39  34 VRB3      30.34S
KINGMAN        SUNNY     77  36  22 S3        30.14R
FLAGSTAFF      SUNNY     66  45  46 CALM      30.37R

$$

REGIONAL REPORTS    NEVADA/IDAHO/WYOMING

CITY           SKY/WX    TMP DP  RH WIND       PRES   REMARKS
LAS VEGAS, NV  SUNNY     80  43  26 SW5       30.02R
ELY            SUNNY     63  47  55 SE6       30.29R
ELKO           MOSUNNY   59  44  57 E5        30.20R
POCATELLO, ID  SUNNY     61  53  75 N5        30.20R
BURLEY         MOSUNNY   59  51  75 E5        30.14R
EVANSTON, WY   SUNNY     61  46  57 SW10      30.32R
ROCK SPRINGS   SUNNY     56  44  64 VRB3      30.29R

$$



USA.gov is the U.S. government's official web portal to all federal, state and local government web resources and services.